Location: Wald
(31.7579°N, 86.6655°W)
Time: 21:15:39
(UTC+00:00)

Cosmos 1975 - Pass Details

Date: 14 July 2020
Orbit: 542 x 561 km, 82.5° (Epoch: 13 August)

Event Time Altitude Azimuth Distance (km) Brightness Sun altitude
Exits shadow 08:33:31 27° 123° (ESE) 1,077 4.3 -24.2°
Maximum altitude 08:34:38 31° 91° (E) 965 4.3 -24.1°
Drops below altitude 10° 08:38:10 10° 29° (NNE) 1,813 6.5 -23.6°
Sets 08:40:29 0° 19° (NNE) 2,708 7.5 -23.2°
